Time,TemperatureF,DewpointF,PressureIn,WindDirection,WindDirectionDegrees,WindSpeedMPH,WindSpeedGustMPH,Humidity,HourlyPrecipIn,Conditions,Clouds,dailyrainin,SolarRadiationWatts/m^2,SoftwareType,DateUTC
2013-08-30 00:00:00,67.9,66.1,29.99,WNW,289,0.0,0.0,94,0.00,,,0.00,0,Wunderground v.1.15,2013-08-30 07:00:00,
2013-08-30 00:10:00,67.9,66.1,29.99,WNW,289,0.0,0.0,94,0.00,,,0.00,0,Wunderground v.1.15,2013-08-30 07:10:00,
2013-08-30 00:20:00,67.9,66.4,29.98,WNW,289,0.0,0.0,95,0.00,,,0.00,0,Wunderground v.1.15,2013-08-30 07:20:00,
2013-08-30 00:30:00,67.9,66.4,29.99,WNW,289,0.0,0.0,95,0.00,,,0.00,0,Wunderground v.1.15,2013-08-30 07:30:00,
2013-08-30 00:40:00,67.7,66.2,29.98,WNW,289,0.0,1.0,95,0.00,,,0.00,0,Wunderground v.1.15,2013-08-30 07:40:00,
2013-08-30 00:50:00,67.6,66.1,29.98,NW,311,0.0,0.0,95,0.00,,,0.00,0,Wunderground v.1.15,2013-08-30 07:50:00,
2013-08-30 01:00:00,67.3,65.8,29.98,NW,324,0.0,0.0,95,0.00,,,0.00,0,Wunderground v.1.15,2013-08-30 08:00:00,
2013-08-30 01:10:00,67.2,65.7,29.98,NNW,337,0.0,0.0,95,0.00,,,0.00,0,Wunderground v.1.15,2013-08-30 08:10:00,
2013-08-30 01:20:00,67.2,65.7,29.97,NNW,337,0.0,0.0,95,0.00,,,0.00,0,Wunderground v.1.15,2013-08-30 08:20:00,
2013-08-30 01:30:00,67.2,65.7,29.97,NNW,337,0.0,0.0,95,0.00,,,0.00,0,Wunderground v.1.15,2013-08-30 08:30:00,
2013-08-30 01:40:00,67.2,65.7,29.97,NNW,337,0.0,0.0,95,0.00,,,0.00,0,Wunderground v.1.15,2013-08-30 08:40:00,
2013-08-30 01:50:00,67.3,66.1,29.97,NNW,337,0.0,0.0,96,0.00,,,0.00,0,Wunderground v.1.15,2013-08-30 08:50:00,
2013-08-30 02:00:00,67.1,65.9,29.97,NNW,337,0.0,0.0,96,0.00,,,0.00,0,Wunderground v.1.15,2013-08-30 09:00:00,
2013-08-30 02:10:00,67.1,65.9,29.97,NNW,337,0.0,0.0,96,0.00,,,0.00,0,Wunderground v.1.15,2013-08-30 09:10:00,
2013-08-30 02:20:00,67.2,66.0,29.97,NNW,337,0.0,0.0,96,0.00,,,0.00,0,Wunderground v.1.15,2013-08-30 09:20:00,
2013-08-30 02:30:00,67.2,66.0,29.96,NNW,337,0.0,0.0,96,0.00,,,0.00,0,Wunderground v.1.15,2013-08-30 09:30:00,
2013-08-30 02:40:00,67.2,66.0,29.96,NNW,337,0.0,0.0,96,0.00,,,0.00,0,Wunderground v.1.15,2013-08-30 09:40:00,
2013-08-30 02:50:00,67.3,66.1,29.96,NNW,337,0.0,0.0,96,0.00,,,0.00,0,Wunderground v.1.15,2013-08-30 09:50:00,
2013-08-30 03:00:00,67.2,66.0,29.96,NNW,337,0.0,0.0,96,0.00,,,0.00,0,Wunderground v.1.15,2013-08-30 10:00:00,
2013-08-30 03:10:00,67.1,65.9,29.96,NNW,337,0.0,0.0,96,0.00,,,0.00,0,Wunderground v.1.15,2013-08-30 10:10:00,
2013-08-30 03:20:00,67.1,65.9,29.96,NNW,337,0.0,0.0,96,0.00,,,0.00,0,Wunderground v.1.15,2013-08-30 10:20:00,
2013-08-30 03:30:00,67.1,65.9,29.96,NNW,337,0.0,0.0,96,0.00,,,0.00,0,Wunderground v.1.15,2013-08-30 10:30:00,
2013-08-30 03:40:00,67.2,66.0,29.96,NNW,337,0.0,0.0,96,0.00,,,0.00,0,Wunderground v.1.15,2013-08-30 10:40:00,
2013-08-30 03:50:00,67.2,66.0,29.96,NNW,337,0.0,0.0,96,0.00,,,0.00,0,Wunderground v.1.15,2013-08-30 10:50:00,
2013-08-30 04:00:00,67.2,66.0,29.96,NNW,337,0.0,0.0,96,0.00,,,0.00,0,Wunderground v.1.15,2013-08-30 11:00:00,
2013-08-30 04:10:00,67.1,65.9,29.96,NNW,337,0.0,0.0,96,0.00,,,0.00,0,Wunderground v.1.15,2013-08-30 11:10:00,
2013-08-30 04:20:00,67.1,65.9,29.96,NNW,337,0.0,0.0,96,0.00,,,0.00,0,Wunderground v.1.15,2013-08-30 11:20:00,
2013-08-30 04:30:00,67.2,66.0,29.96,NNW,337,0.0,0.0,96,0.00,,,0.00,0,Wunderground v.1.15,2013-08-30 11:30:00,
2013-08-30 04:40:00,67.2,66.0,29.96,NNW,337,0.0,0.0,96,0.00,,,0.00,0,Wunderground v.1.15,2013-08-30 11:40:00,
2013-08-30 04:50:00,67.1,65.9,29.96,NNW,337,0.0,0.0,96,0.00,,,0.00,0,Wunderground v.1.15,2013-08-30 11:50:00,
2013-08-30 05:00:00,67.1,65.9,29.95,NNW,337,0.0,0.0,96,0.00,,,0.00,0,Wunderground v.1.15,2013-08-30 12:00:00,
2013-08-30 05:10:00,67.2,66.0,29.96,NNW,337,0.0,0.0,96,0.00,,,0.00,0,Wunderground v.1.15,2013-08-30 12:10:00,
2013-08-30 05:20:00,67.0,65.8,29.96,NNW,337,0.0,0.0,96,0.00,,,0.00,0,Wunderground v.1.15,2013-08-30 12:20:00,
2013-08-30 05:30:00,66.9,65.7,29.96,NNW,337,0.0,0.0,96,0.00,,,0.00,0,Wunderground v.1.15,2013-08-30 12:30:00,
2013-08-30 05:40:00,66.8,65.6,29.96,NNW,337,0.0,0.0,96,0.00,,,0.00,0,Wunderground v.1.15,2013-08-30 12:40:00,
2013-08-30 05:50:00,66.7,65.5,29.96,NNW,337,0.0,0.0,96,0.00,,,0.00,0,Wunderground v.1.15,2013-08-30 12:50:00,
2013-08-30 06:00:00,66.7,65.5,29.96,NNW,337,0.0,0.0,96,0.00,,,0.00,0,Wunderground v.1.15,2013-08-30 13:00:00,
2013-08-30 06:10:00,66.8,65.6,29.96,NNW,337,0.0,0.0,96,0.00,,,0.00,0,Wunderground v.1.15,2013-08-30 13:10:00,
2013-08-30 06:20:00,66.8,65.6,29.97,NNW,337,0.0,0.0,96,0.00,,,0.00,7,Wunderground v.1.15,2013-08-30 13:20:00,
2013-08-30 06:30:00,66.7,65.5,29.97,NW,312,0.0,0.0,96,0.00,,,0.00,19,Wunderground v.1.15,2013-08-30 13:30:00,
2013-08-30 06:40:00,66.8,65.6,29.97,West,279,0.0,0.0,96,0.00,,,0.00,37,Wunderground v.1.15,2013-08-30 13:40:00,
2013-08-30 06:50:00,66.9,65.7,29.97,West,279,0.0,0.0,96,0.00,,,0.00,62,Wunderground v.1.15,2013-08-30 13:50:00,
2013-08-30 07:00:00,67.2,66.0,29.98,WNW,293,0.0,0.0,96,0.00,,,0.00,84,Wunderground v.1.15,2013-08-30 14:00:00,
2013-08-30 07:10:00,67.8,66.6,29.98,WNW,293,0.0,0.0,96,0.00,,,0.00,128,Wunderground v.1.15,2013-08-30 14:10:00,
2013-08-30 07:20:00,68.4,66.9,29.98,WNW,293,0.0,0.0,95,0.00,,,0.00,162,Wunderground v.1.15,2013-08-30 14:20:00,
2013-08-30 07:30:00,69.1,67.3,29.98,WNW,293,0.0,0.0,94,0.00,,,0.00,206,Wunderground v.1.15,2013-08-30 14:30:00,
2013-08-30 07:40:00,69.6,67.5,29.98,WNW,293,0.0,0.0,93,0.00,,,0.00,179,Wunderground v.1.15,2013-08-30 14:40:00,
2013-08-30 07:50:00,70.0,67.6,29.98,WNW,293,0.0,0.0,92,0.00,,,0.00,192,Wunderground v.1.15,2013-08-30 14:50:00,
2013-08-30 08:00:00,70.1,67.3,29.98,WNW,293,0.0,0.0,91,0.00,,,0.00,199,Wunderground v.1.15,2013-08-30 15:00:00,
2013-08-30 08:10:00,70.4,68.0,29.98,WNW,293,0.0,0.0,92,0.00,,,0.00,241,Wunderground v.1.15,2013-08-30 15:10:00,
2013-08-30 08:20:00,71.0,66.9,29.98,WNW,293,0.0,0.0,87,0.00,,,0.00,246,Wunderground v.1.15,2013-08-30 15:20:00,
2013-08-30 08:30:00,71.4,67.3,29.99,NE,38,0.0,0.0,87,0.00,,,0.00,281,Wunderground v.1.15,2013-08-30 15:30:00,
2013-08-30 08:40:00,71.5,66.4,29.99,NNE,26,0.0,0.0,84,0.00,,,0.00,288,Wunderground v.1.15,2013-08-30 15:40:00,
2013-08-30 08:50:00,71.9,67.1,29.99,NE,36,0.0,0.0,85,0.00,,,0.00,338,Wunderground v.1.15,2013-08-30 15:50:00,
2013-08-30 09:00:00,72.0,66.9,29.99,NE,37,0.0,0.0,84,0.00,,,0.00,359,Wunderground v.1.15,2013-08-30 16:00:00,
2013-08-30 09:10:00,72.5,67.4,29.99,NE,51,0.0,0.0,84,0.00,,,0.00,392,Wunderground v.1.15,2013-08-30 16:10:00,
2013-08-30 09:20:00,72.9,67.4,29.99,NE,36,0.0,0.0,83,0.00,,,0.00,350,Wunderground v.1.15,2013-08-30 16:20:00,
2013-08-30 09:30:00,73.2,67.4,29.99,NNE,23,0.0,0.0,82,0.00,,,0.00,334,Wunderground v.1.15,2013-08-30 16:30:00,
2013-08-30 09:40:00,73.2,67.0,29.99,NNE,26,0.0,0.0,81,0.00,,,0.00,292,Wunderground v.1.15,2013-08-30 16:40:00,
2013-08-30 09:50:00,73.2,67.0,29.98,NE,55,0.0,0.0,81,0.00,,,0.00,297,Wunderground v.1.15,2013-08-30 16:50:00,
2013-08-30 10:00:00,73.5,67.3,29.99,ENE,73,0.0,0.0,81,0.00,,,0.00,404,Wunderground v.1.15,2013-08-30 17:00:00,
2013-08-30 10:10:00,74.5,66.8,29.99,South,178,0.0,0.0,77,0.00,,,0.00,756,Wunderground v.1.15,2013-08-30 17:10:00,
2013-08-30 10:20:00,75.9,65.8,29.99,ESE,110,0.0,0.0,71,0.00,,,0.00,728,Wunderground v.1.15,2013-08-30 17:20:00,
2013-08-30 10:30:00,77.6,66.6,29.99,ENE,76,0.0,0.0,69,0.00,,,0.00,1005,Wunderground v.1.15,2013-08-30 17:30:00,
2013-08-30 10:40:00,77.6,65.3,29.99,ESE,105,0.0,0.0,66,0.00,,,0.00,575,Wunderground v.1.15,2013-08-30 17:40:00,
2013-08-30 10:50:00,77.5,64.8,29.99,ENE,69,0.0,0.0,65,0.00,,,0.00,578,Wunderground v.1.15,2013-08-30 17:50:00,
2013-08-30 11:00:00,78.1,64.9,29.98,NE,36,0.0,0.0,64,0.00,,,0.00,622,Wunderground v.1.15,2013-08-30 18:00:00,
2013-08-30 11:10:00,80.2,65.5,29.98,NE,36,0.0,0.0,61,0.00,,,0.00,977,Wunderground v.1.15,2013-08-30 18:10:00,
2013-08-30 11:20:00,80.6,64.0,29.97,NE,35,0.0,0.0,57,0.00,,,0.00,1136,Wunderground v.1.15,2013-08-30 18:20:00,
2013-08-30 11:30:00,82.8,62.8,29.97,NNE,30,0.0,0.0,51,0.00,,,0.00,759,Wunderground v.1.15,2013-08-30 18:30:00,
2013-08-30 11:40:00,84.1,63.5,29.97,North,360,0.0,0.0,50,0.00,,,0.00,1264,Wunderground v.1.15,2013-08-30 18:40:00,
2013-08-30 11:50:00,85.0,63.1,29.97,North,350,1.0,1.0,48,0.00,,,0.00,1209,Wunderground v.1.15,2013-08-30 18:50:00,
2013-08-30 12:00:00,85.7,62.5,29.97,NW,307,3.0,3.0,46,0.00,,,0.00,1137,Wunderground v.1.15,2013-08-30 19:00:00,
2013-08-30 12:10:00,86.3,64.9,29.96,North,355,1.0,6.0,49,0.00,,,0.00,1111,Wunderground v.1.15,2013-08-30 19:10:00,
2013-08-30 12:20:00,86.0,64.0,29.96,NE,36,3.0,6.0,48,0.00,,,0.00,1099,Wunderground v.1.15,2013-08-30 19:20:00,
2013-08-30 12:30:00,86.0,62.8,29.95,NE,51,3.0,3.0,46,0.00,,,0.00,1034,Wunderground v.1.15,2013-08-30 19:30:00,
2013-08-30 12:40:00,86.2,63.0,29.95,North,355,2.0,2.0,46,0.00,,,0.00,1208,Wunderground v.1.15,2013-08-30 19:40:00,
2013-08-30 12:50:00,87.0,62.5,29.94,NNE,27,2.0,2.0,44,0.00,,,0.00,1299,Wunderground v.1.15,2013-08-30 19:50:00,
2013-08-30 13:00:00,87.1,63.8,29.94,North,360,2.0,8.0,46,0.00,,,0.00,573,Wunderground v.1.15,2013-08-30 20:00:00,
2013-08-30 13:10:00,85.9,64.5,29.93,North,355,2.0,5.0,49,0.00,,,0.00,492,Wunderground v.1.15,2013-08-30 20:10:00,
2013-08-30 13:20:00,83.8,65.4,29.94,North,10,5.0,5.0,54,0.00,,,0.00,339,Wunderground v.1.15,2013-08-30 20:20:00,
2013-08-30 13:30:00,82.4,65.1,29.93,NNE,24,3.0,3.0,56,0.00,,,0.00,336,Wunderground v.1.15,2013-08-30 20:30:00,
2013-08-30 13:40:00,81.5,65.8,29.92,NNE,20,4.0,4.0,59,0.00,,,0.00,506,Wunderground v.1.15,2013-08-30 20:40:00,
2013-08-30 13:50:00,82.0,64.8,29.92,North,5,4.0,4.0,56,0.00,,,0.00,895,Wunderground v.1.15,2013-08-30 20:50:00,
2013-08-30 14:00:00,83.6,65.2,29.92,North,360,3.0,5.0,54,0.00,,,0.00,548,Wunderground v.1.15,2013-08-30 21:00:00,
2013-08-30 14:10:00,83.2,63.7,29.92,NE,38,4.0,4.0,52,0.00,,,0.00,244,Wunderground v.1.15,2013-08-30 21:10:00,
2013-08-30 14:20:00,82.1,63.8,29.91,NNE,33,4.0,4.0,54,0.00,,,0.00,209,Wunderground v.1.15,2013-08-30 21:20:00,
2013-08-30 14:30:00,81.4,64.7,29.91,NNE,30,3.0,3.0,57,0.00,,,0.00,181,Wunderground v.1.15,2013-08-30 21:30:00,
2013-08-30 14:40:00,81.0,63.3,29.90,NNE,24,2.0,3.0,55,0.00,,,0.00,153,Wunderground v.1.15,2013-08-30 21:40:00,
2013-08-30 14:50:00,80.0,64.4,29.90,ENE,60,2.0,4.0,59,0.00,,,0.00,132,Wunderground v.1.15,2013-08-30 21:50:00,
2013-08-30 15:00:00,79.4,64.3,29.90,NE,55,1.0,2.0,60,0.00,,,0.00,123,Wunderground v.1.15,2013-08-30 22:00:00,
2013-08-30 15:10:00,79.0,65.8,29.89,NE,55,0.0,0.0,64,0.00,,,0.00,120,Wunderground v.1.15,2013-08-30 22:10:00,
2013-08-30 15:20:00,78.8,64.2,29.89,NE,36,0.0,0.0,61,0.00,,,0.00,127,Wunderground v.1.15,2013-08-30 22:20:00,
2013-08-30 15:30:00,79.0,63.9,29.89,North,5,1.0,3.0,60,0.00,,,0.00,139,Wunderground v.1.15,2013-08-30 22:30:00,
2013-08-30 15:40:00,79.2,63.1,29.89,North,5,1.0,1.0,58,0.00,,,0.00,156,Wunderground v.1.15,2013-08-30 22:40:00,
2013-08-30 15:50:00,79.5,63.9,29.89,NNE,26,0.0,3.0,59,0.00,,,0.00,172,Wunderground v.1.15,2013-08-30 22:50:00,
2013-08-30 16:00:00,79.7,62.1,29.88,NE,35,1.0,1.0,55,0.00,,,0.00,188,Wunderground v.1.15,2013-08-30 23:00:00,
2013-08-30 16:10:00,79.9,63.3,29.88,NNE,25,1.0,1.0,57,0.00,,,0.00,185,Wunderground v.1.15,2013-08-30 23:10:00,
2013-08-30 16:20:00,80.1,62.5,29.88,NE,44,0.0,7.0,55,0.00,,,0.00,174,Wunderground v.1.15,2013-08-30 23:20:00,
2013-08-30 16:30:00,80.2,62.6,29.88,NNE,28,1.0,7.0,55,0.00,,,0.00,153,Wunderground v.1.15,2013-08-30 23:30:00,
2013-08-30 16:40:00,80.1,62.5,29.88,North,355,2.0,7.0,55,0.00,,,0.00,137,Wunderground v.1.15,2013-08-30 23:40:00,
2013-08-30 16:50:00,80.0,62.4,29.88,North,350,1.0,7.0,55,0.00,,,0.00,130,Wunderground v.1.15,2013-08-30 23:50:00,
2013-08-30 17:00:00,79.8,62.7,29.87,North,351,1.0,1.0,56,0.00,,,0.00,127,Wunderground v.1.15,2013-08-31 00:00:00,
2013-08-30 17:10:00,79.8,61.7,29.87,North,350,1.0,1.0,54,0.00,,,0.00,116,Wunderground v.1.15,2013-08-31 00:10:00,
2013-08-30 17:20:00,79.6,63.0,29.87,North,351,0.0,0.0,57,0.00,,,0.00,97,Wunderground v.1.15,2013-08-31 00:20:00,
2013-08-30 17:30:00,79.3,63.2,29.87,North,351,0.0,0.0,58,0.00,,,0.00,76,Wunderground v.1.15,2013-08-31 00:30:00,
2013-08-30 17:40:00,78.7,64.1,29.87,North,351,0.0,0.0,61,0.00,,,0.00,53,Wunderground v.1.15,2013-08-31 00:40:00,
2013-08-30 17:50:00,78.2,64.6,29.87,North,351,0.0,0.0,63,0.00,,,0.00,40,Wunderground v.1.15,2013-08-31 00:50:00,
2013-08-30 18:00:00,77.6,64.5,29.87,North,351,0.0,0.0,64,0.00,,,0.00,30,Wunderground v.1.15,2013-08-31 01:00:00,
2013-08-30 18:10:00,77.0,64.3,29.87,North,355,0.0,4.0,65,0.00,,,0.00,21,Wunderground v.1.15,2013-08-31 01:10:00,
2013-08-30 18:20:00,76.1,63.9,29.88,North,355,0.0,4.0,66,0.00,,,0.00,14,Wunderground v.1.15,2013-08-31 01:20:00,
2013-08-30 18:30:00,75.6,63.9,29.88,North,355,0.0,4.0,67,0.00,,,0.00,7,Wunderground v.1.15,2013-08-31 01:30:00,
2013-08-30 18:40:00,74.7,63.9,29.88,NNW,348,0.0,4.0,69,0.00,,,0.00,0,Wunderground v.1.15,2013-08-31 01:40:00,
2013-08-30 18:50:00,74.5,62.4,29.88,NNW,337,0.0,4.0,66,0.00,,,0.00,0,Wunderground v.1.15,2013-08-31 01:50:00,
2013-08-30 19:00:00,74.2,62.1,29.89,NNW,337,0.0,4.0,66,0.00,,,0.00,0,Wunderground v.1.15,2013-08-31 02:00:00,
2013-08-30 19:10:00,73.8,61.7,29.89,WNW,296,0.0,4.0,66,0.00,,,0.00,0,Wunderground v.1.15,2013-08-31 02:10:00,
2013-08-30 19:20:00,73.4,61.3,29.90,WNW,302,1.0,1.0,66,0.00,,,0.00,0,Wunderground v.1.15,2013-08-31 02:20:00,
2013-08-30 19:30:00,73.1,61.5,29.90,WNW,300,0.0,0.0,67,0.00,,,0.00,0,Wunderground v.1.15,2013-08-31 02:30:00,
2013-08-30 19:40:00,72.5,61.7,29.91,WNW,302,0.0,0.0,69,0.00,,,0.00,0,Wunderground v.1.15,2013-08-31 02:40:00,
2013-08-30 19:50:00,71.5,62.0,29.91,NW,304,0.0,3.0,72,0.00,,,0.00,0,Wunderground v.1.15,2013-08-31 02:50:00,
2013-08-30 20:00:00,71.8,62.3,29.90,NW,304,2.0,4.0,72,0.00,,,0.00,0,Wunderground v.1.15,2013-08-31 03:00:00,
2013-08-30 20:10:00,72.2,62.7,29.90,NW,314,3.0,3.0,72,0.00,,,0.00,0,Wunderground v.1.15,2013-08-31 03:10:00,
2013-08-30 20:20:00,72.2,62.7,29.91,NW,306,2.0,2.0,72,0.00,,,0.00,0,Wunderground v.1.15,2013-08-31 03:20:00,
2013-08-30 20:30:00,72.1,63.4,29.91,NW,313,2.0,2.0,74,0.00,,,0.00,0,Wunderground v.1.15,2013-08-31 03:30:00,
2013-08-30 20:40:00,71.8,63.4,29.92,NW,310,3.0,3.0,75,0.00,,,0.00,0,Wunderground v.1.15,2013-08-31 03:40:00,
2013-08-30 20:50:00,71.9,63.5,29.92,NW,308,0.0,1.0,75,0.00,,,0.00,0,Wunderground v.1.15,2013-08-31 03:50:00,
2013-08-30 21:00:00,71.8,63.4,29.92,NW,304,0.0,1.0,75,0.00,,,0.00,0,Wunderground v.1.15,2013-08-31 04:00:00,
2013-08-30 21:10:00,71.2,62.9,29.92,WNW,300,0.0,0.0,75,0.00,,,0.00,0,Wunderground v.1.15,2013-08-31 04:10:00,
2013-08-30 21:20:00,70.4,62.8,29.92,WNW,302,0.0,0.0,77,0.00,,,0.00,0,Wunderground v.1.15,2013-08-31 04:20:00,
2013-08-30 21:30:00,69.8,62.6,29.92,WNW,302,0.0,1.0,78,0.00,,,0.00,0,Wunderground v.1.15,2013-08-31 04:30:00,
2013-08-30 21:40:00,69.9,62.4,29.92,NW,312,0.0,0.0,77,0.00,,,0.00,0,Wunderground v.1.15,2013-08-31 04:40:00,
2013-08-30 21:50:00,69.6,62.4,29.92,WNW,298,0.0,0.0,78,0.00,,,0.00,0,Wunderground v.1.15,2013-08-31 04:50:00,
2013-08-30 22:00:00,69.2,62.4,29.92,WNW,298,0.0,0.0,79,0.00,,,0.00,0,Wunderground v.1.15,2013-08-31 05:00:00,
2013-08-30 22:10:00,69.1,62.3,29.93,WNW,298,0.0,5.0,79,0.00,,,0.00,0,Wunderground v.1.15,2013-08-31 05:10:00,
2013-08-30 22:20:00,68.7,62.3,29.92,NW,309,1.0,1.0,80,0.00,,,0.00,0,Wunderground v.1.15,2013-08-31 05:20:00,
2013-08-30 22:30:00,69.1,62.3,29.92,NW,319,0.0,5.0,79,0.00,,,0.00,0,Wunderground v.1.15,2013-08-31 05:30:00,
2013-08-30 22:40:00,69.2,62.4,29.92,NW,319,0.0,5.0,79,0.00,,,0.00,0,Wunderground v.1.15,2013-08-31 05:40:00,
2013-08-30 22:50:00,68.5,62.4,29.91,NW,319,0.0,5.0,81,0.00,,,0.00,0,Wunderground v.1.15,2013-08-31 05:50:00,
2013-08-30 23:00:00,68.1,62.4,29.92,NW,319,0.0,5.0,82,0.00,,,0.00,0,Wunderground v.1.15,2013-08-31 06:00:00,
2013-08-30 23:10:00,68.0,62.3,29.91,NW,319,0.0,5.0,82,0.00,,,0.00,0,Wunderground v.1.15,2013-08-31 06:10:00,
2013-08-30 23:20:00,67.7,62.3,29.91,NW,318,0.0,5.0,83,0.00,,,0.00,0,Wunderground v.1.15,2013-08-31 06:20:00,
2013-08-30 23:30:00,67.5,62.2,29.91,NW,318,0.0,5.0,83,0.00,,,0.00,0,Wunderground v.1.15,2013-08-31 06:30:00,
2013-08-30 23:40:00,67.3,62.3,29.91,NW,319,0.0,5.0,84,0.00,,,0.00,0,Wunderground v.1.15,2013-08-31 06:40:00,
2013-08-30 23:50:00,67.4,62.4,29.91,NW,320,0.0,5.0,84,0.00,,,0.00,0,Wunderground v.1.15,2013-08-31 06:50:00,